Location: Barrio de Buenos Aires
(28.4500°N, 16.2667°W)
Time: 06:19:23
(UTC+00:00)

FUSE - Pass Details

Date: 24 January 2020
Orbit: 742 x 756 km, 25.0° (Epoch: 17 February)

Event Time Altitude Azimuth Distance (km) Brightness Sun altitude
Rises 19:50:46 0° 261° (W) 3,177 9.0 -16.1°
Reaches altitude 10° 19:53:15 10° 258° (WSW) 2,255 7.8 -16.7°
Maximum altitude 19:58:32 61° 179° (S) 848 4.2 -17.8°
Enters shadow 20:01:12 28° 109° (ESE) 1,363 4.8 -18.4°
